Home   Weather   Watford   Past weeks

Flag for United Kingdom Past Weather in Watford, England, United Kingdom — Yesterday and Last 2 Weeks

Now
48 °F

Passing clouds.


Feels Like: 48 °F
Forecast: 44 / 60 °F
Wind: 1 mph from South

Location: Northolt

Current Time: Oct 1, 2016 at 6:01:20 AM

Latest Report: Oct 1, 2016 at 4:50 AM


Visibility: N/A

Pressure: 29.74 "Hg

Humidity: 100%

Dew Point: 48 °F

Location of WatfordLocation

Past Weather in Watford — Graph

°F

Watford Temperature Yesterday

Maximum temperature yesterday: 66 °F (at 3:50 PM)
Minimum temperature yesterday: 46 °F (at 11:50 PM)
Average temperature yesterday: 56 °F

High & Low Weather Summary for the Past Weeks

 TemperatureHumidityPressure
High72 °F (Sep 21, 12:50 PM)100% (Sep 20, 12:50 AM)30.27 "Hg (Sep 20, 12:50 AM)
Low45 °F (Oct 1, 1:50 AM)43% (Sep 23, 12:50 PM)29.74 "Hg (Oct 1, 3:50 AM)
Average60 °F78%30.08 "Hg
* Reported Sep 16 4:50 AM — Oct 1 4:50 AM, Watford, Weather by CustomWeather, © 2016

Note: Actual official high and low records may vary slightly from our data, if they occured in-between our weather recording intervals... More about our weather records

Advertising

Watford Weather History for the Previous 24 Hours

Scroll right to see more
 ConditionsComfort  
Time TempWeatherWind HumidityBarometerVisibility
4:50 AM
Sat, Oct 1
48 °FPassing clouds.1 mph100%29.74 "HgN/A
3:50 AM48 °FOvercast.1 mph100%29.74 "HgN/A
2:50 AM46 °FPassing clouds.2 mph100%29.77 "HgN/A
1:50 AM45 °FPassing clouds.No wind100%29.77 "HgN/A
12:50 AM46 °FClear.No wind93%29.80 "Hg1 mi
11:50 PM
Fri, Sep 30
46 °FClear.No wind100%29.83 "Hg0 mi
10:50 PM50 °FClear.No wind94%29.83 "Hg10 mi
9:50 PM52 °FClear.1 mph94%29.86 "Hg10 mi
8:50 PM55 °FPartly cloudy.3 mph82%29.86 "HgN/A
7:50 PM55 °FPassing clouds.7 mph88%29.86 "HgN/A
6:50 PM57 °FPassing clouds.14 mph77%29.86 "HgN/A
5:50 PM63 °FSunny.9 mph56%29.83 "Hg10 mi
4:50 PM64 °FScattered clouds.9 mph46%29.83 "HgN/A
3:50 PM66 °FScattered clouds.13 mph46%29.86 "HgN/A
2:50 PM63 °FScattered clouds.12 mph56%29.86 "HgN/A
1:50 PM63 °FPassing clouds.12 mph56%29.89 "HgN/A
12:50 PM63 °FScattered clouds.9 mph59%29.89 "HgN/A
11:50 AM61 °FScattered showers. Partly sunny.15 mph59%29.92 "HgN/A
10:50 AM61 °FPassing clouds.12 mph59%29.92 "HgN/A
9:50 AM57 °FPassing clouds.12 mph72%29.92 "HgN/A
8:50 AM55 °FSunny.7 mph77%29.92 "Hg10 mi
7:50 AM52 °FSunny.3 mph88%29.92 "Hg10 mi
6:50 AM52 °FClear.6 mph82%29.92 "Hg10 mi
Weather by CustomWeather, © 2016

See weather overviewHow to use our weather pages